Regional Weather Roundup
Issued by NWS

Home | Current Version | Previous Version | Graphics & Text | Print | Product List | Glossary Off
Versions: 1 2 3 4 5 6 7 8 9 10 11 12 13 14 15 16 17 18 19 20 21 22 23 24 25 26 27 28 29 30 31 32 33 34 35 36 37 38 39 40 41 42 43 44 45 46 47 48 49 50

289
ASUS44 KMEG 240600
RWRTN
TENNESSEE HOURLY STATE WEATHER ROUNDUP
NATIONAL WEATHER SERVICE MEMPHIS TN
1200 AM CST TUE JAN 24 2017

TNZ002-004-019-021-049-052-054-088>092-240700-
WEST TENNESSEE

CITY           SKY/WX    TMP DP  RH WIND       PRES   REMARKS
MEMPHIS INTL   CLEAR     41  38  89 CALM      29.86F
NWS MEMPHIS      N/A     37 N/A N/A MISG        N/A
JACKSON        CLEAR     34  33  96 CALM      29.87F
DYERSBURG      CLEAR     36  34  93 CALM      29.87F
UNION CITY     CLEAR    N/A N/A N/A CALM      29.86F
PARIS          CLOUDY    39  34  81 CALM      29.86S
$$

TNZ008-025-027-028-033-062-065-066-240700-
NORTH MIDDLE TENNESSEE

CITY           SKY/WX    TMP DP  RH WIND       PRES   REMARKS
NASHVILLE      CLOUDY    42  34  73 NW8       29.84F
CLARKSVILLE    CLOUDY    42  34  73 N8        29.85F
SMYRNA         CLOUDY    42  36  79 NW9       29.85S
CROSSVILLE     FOG       38  37  97 NW8       29.76S VSB 1/2 WCI  32
$$

TNZ061-075-076-078-094-096-097-240700-
SOUTH MIDDLE TENNESSEE

CITY           SKY/WX    TMP DP  RH WIND       PRES   REMARKS
TULLAHOMA      CLOUDY    39  37  93 NW6       29.82S WCI  35
WINCHESTER     CLOUDY    43  37  81 N8        29.79F
COLUMBIA       CLOUDY    43  39  87 N5        29.83S
SHELBYVILLE    CLOUDY    43  37  81 NW8       29.84S
$$

TNZ017-018-042-046-047-240700-
NORTHEAST TENNESSEE

CITY           SKY/WX    TMP DP  RH WIND       PRES   REMARKS
TRI CITIES     CLOUDY    47  42  83 W15G23    29.63R
$$

TNZ012-013-036-069-073-074-240700-
CENTRAL EAST TENNESSEE

CITY           SKY/WX    TMP DP  RH WIND       PRES   REMARKS
KNOXVILLE      CLOUDY    45  39  79 W8        29.73S
OAK RIDGE      CLOUDY    44  39  82 SW8       29.74S
GATLINBURG     CLOUDY    43  37  81 W9        29.73R
$$

TNZ083-085-099-240700-
SOUTHEAST TENNESSEE

CITY           SKY/WX    TMP DP  RH WIND       PRES   REMARKS
CHATTANOOGA    CLOUDY    46  39  76 NW8       29.79S
$$

SKY/WX REPORTED AS FAIR MEANS FEW OR NO CLOUDS BELOW
12 THOUSAND FEET.





USA.gov is the U.S. government's official web portal to all federal, state and local government web resources and services.